Miscellaneous Local Product
Issued by NWS Hastings, NE

Home | Current Version | Previous Version | Graphics & Text | Print | Product List | Glossary On
Versions: 1 2 3 4 5 6 7 8 9 10 11 12 13 14 15 16 17 18 19 20 21 22 23 24 25 26 27 28 29 30 31 32 33 34 35 36 37 38 39 40 41 42 43 44 45 46 47 48 49 50
154
AXUS43 KGID 151502
MISGRI

GID CWA HOURLY WEATHER ROUNDUP
NATIONAL WEATHER SERVICE HASTINGS NE
1000 AM CDT TUE AUG 15 2017

NOTE: "FAIR" INDICATES FEW OR NO CLOUDS BELOW 12,000 FEET WITH NO
SIGNIFICANT WEATHER AND/OR OBSTRUCTIONS TO VISIBILITY.

...SOUTH CENTRAL NEBRASKA...

CITY           SKY/WX    TMP DP  RH WIND       PRES   REMARKS
GRAND ISLAND   CLOUDY    71  67  87 E13       29.88F
HASTINGS       CLOUDY    69  66  90 E12       29.88S
KEARNEY        CLOUDY    69  67  93 E12       29.88S
ORD            CLOUDY    70  65  84 SE7       29.83F
YORK           CLOUDY    68  66  94 E14       29.89S
AURORA         CLOUDY    68  66  94 E10G16    29.88F
LEXINGTON      CLOUDY    68  65  90 E13       29.86S FOG
HOLDREGE       PTSUNNY   69  67  92 E7        29.86F
HEBRON         MOSUNNY   80  72  75 S7        29.87R

...NEBRASKA PANHANDLE...

CITY           SKY/WX    TMP DP  RH WIND       PRES   REMARKS
CHADRON        PTSUNNY   69  59  70 S5        29.88R
ALLIANCE       CLOUDY    66  63  90 S15       29.92R
SCOTTSBLUFF    CLOUDY    65  60  84 CALM      29.94R
SIDNEY         CLOUDY    66  63  90 E8        29.94R

...WESTERN AND NORTH CENTRAL NEBRASKA...

CITY           SKY/WX    TMP DP  RH WIND       PRES   REMARKS
VALENTINE      CLOUDY    70  61  73 SE12      29.87S
AINSWORTH      CLOUDY    71  65  83 S9        29.88R
ONEILL         CLOUDY    69  66  92 SE12      29.87R
BROKEN BOW     MOSUNNY   73  65  75 SE16      29.86F
IMPERIAL       LGT RAIN  67  64  90 E8        29.88R
NORTH PLATTE   CLOUDY    67  65  93 SE13      29.87S
MCCOOK         CLOUDY    70  67  90 NE5       29.85R

...EASTERN NEBRASKA...

CITY           SKY/WX    TMP DP  RH WIND       PRES   REMARKS
NORFOLK        MOSUNNY   69  64  84 E12       29.86S
SO SIOUX CITY  CLOUDY    65  65 100 SE12      29.87R
TEKAMAH        LGT RAIN  66  65  96 SE10      29.87F
COLUMBUS       CLOUDY    70  66  87 E12       29.88S
ALBION         CLOUDY    72  65  79 SE12G18   29.87S
OMAHA EPPLEY   CLOUDY    68  65  90 NE9       29.91R
OFFUTT AFB     LGT RAIN  68  65  92 N9        29.89S
MILLARD        CLOUDY    69  67  90 NE7       29.90S
LINCOLN        CLOUDY    69  64  84 NE10      29.90R
NEBRASKA CITY  CLOUDY    75  75 100 S6        29.88R
BEATRICE       SUNNY     81  72  74 S6        29.87S
FALLS CITY     MOSUNNY   78  73  84 SE8       29.87S

...NORTHERN KANSAS...

CITY           SKY/WX    TMP DP  RH WIND       PRES   REMARKS
GOODLAND       CLOUDY    72  62  71 S13       29.87R
HILL CITY      SUNNY     81  68  64 S9        29.85R
NORTON         PTSUNNY   79  63  57 S9        29.84S
PHILLIPSBURG   SUNNY     81  66  61 SE8       29.85S
SMITH CENTER   MOSUNNY   79  68  69 SE8       29.86S
HAYS           MOSUNNY   83  69  62 S15       29.85R
RUSSELL        SUNNY     81  68  64 S15G22    29.85S
CONCORDIA      SUNNY     80  72  76 S10       29.86S
SALINA         SUNNY     86  69  56 S13       29.87R HX  90
TOPEKA         CLOUDY    76  74  93 SE7       29.89R



USA.gov is the U.S. government's official web portal to all federal, state and local government web resources and services.